Hourly Data Report for July 10, 2009

PITT MEADOWS CS
BRITISH COLUMBIA

49°12'29.964" N
122°41'24.076" W
5.00 m
1106178
71775
WMM

Download Data

Hourly Data (July 2009)
Hourly Data Report for July 10, 2009
TIME
LST
Temp Definition
°C
Dew Point Definition
°C
Rel Hum Definition
%
Precip. Amount Definition
mm

Wind Dir Definition
10's deg

Wind Spd Definition
km/h
Visibility Definition
km
Stn Press Definition
kPa
Hmdx Definition


Wind Chill Definition


Weather Definition


00:00 12.9 11.6 92   10 2   101.94     LegendNANA
01:00 12.4 11.7 95     0   101.94     LegendNANA
02:00 11.7 10.6 93     0   101.96     LegendNANA
03:00 12.2 11.7 97     0   101.96     LegendNANA
04:00 11.5 11.2 98     0   101.95     LegendNANA
05:00 11.1 10.6 97   12 2   101.94     LegendNANA
06:00 13.9 12.5 91     0   101.95     LegendNANA
07:00 15.6 12.8 83   20 2   101.97     LegendNANA
08:00 17.6 13.3 76   25 2   101.96     LegendNANA
09:00 19.0 12.7 67   19 4   101.94     LegendNANA
10:00 21.2 13.1 60   27 2   101.90     LegendNANA
11:00 22.4 12.0 52   26 4   101.87 25   LegendNANA
12:00 24.3 13.1 50   30 4   101.83 27   LegendNANA
13:00 24.8 12.8 47   28 7   101.80 27   LegendNANA
14:00 25.6 13.3 47   25 9   101.73 29   LegendNANA
15:00 27.1 12.8 41   29 7   101.68 30   LegendNANA
16:00 27.2 10.6 35   27 9   101.62 29   LegendNANA
17:00 27.7 11.9 37   29 7   101.56 30   LegendNANA
18:00 26.4 11.9 40   27 9   101.52 29   LegendNANA
19:00 24.8 12.0 45   28 9   101.51 27   LegendNANA
20:00 21.9 13.7 60   25 2   101.53 25   LegendNANA
21:00 19.4 13.9 70     0   101.57     LegendNANA
22:00 16.9 14.3 85     0   101.59     LegendNANA
23:00 15.6 13.5 87   17 4   101.62     LegendNANA

Notes on Data Quality.

Legend

  • E = Estimated
  • M = Missing
  • NA = Not Available*
  • [empty] = Indicates an unobserved value
Date modified: